Total_Precipitation_Accumulation
0.04 0.07 0.07 0.09 0.04 0.08 0.11 0.07 0.04 0.06 0.08 0.05 0.03 0.02 0.02 0.02 0.01 0.03 0.08 0.08 0.04 0.03 0.03 0.05 0.04 0.04 0.06 0.07 0.09 0.15 0.19 0.18 0.20 0.19 0.14 0.10 0.08 0.05 0.01 0.00 0.00 0.00 0.00
0.06 0.12 0.11 0.08 0.06 0.07 0.12 0.14 0.12 0.21 0.15 0.09 0.07 0.06 0.04 0.04 0.03 0.04 0.05 0.07 0.06 0.03 0.02 0.02 0.02 0.01 0.02 0.02 0.04 0.07 0.11 0.13 0.14 0.12 0.08 0.06 0.07 0.08 0.03 0.01 0.00 0.00 0.00
0.06 0.11 0.15 0.11 0.12 0.10 0.15 0.18 0.22 0.26 0.12 0.10 0.08 0.05 0.03 0.02 0.02 0.01 0.01 0.03 0.07 0.07 0.04 0.02 0.01 0.01 0.01 0.01 0.01 0.04 0.09 0.11 0.14 0.10 0.06 0.04 0.08 0.12 0.08 0.03 0.02 0.01 0.01
0.06 0.11 0.13 0.09 0.12 0.19 0.22 0.22 0.26 0.23 0.16 0.09 0.06 0.04 0.02 0.02 0.01 0.00 0.00 0.01 0.03 0.05 0.04 0.02 0.01 0.01 0.00 0.00 0.01 0.05 0.13 0.18 0.21 0.16 0.10 0.07 0.11 0.13 0.10 0.06 0.04 0.02 0.02
0.07 0.12 0.13 0.15 0.19 0.22 0.23 0.17 0.21 0.18 0.21 0.16 0.06 0.06 0.04 0.02 0.01 0.01 0.00 0.00 0.01 0.01 0.01 0.01 0.01 0.01 0.01 0.02 0.04 0.05 0.12 0.21 0.24 0.21 0.17 0.13 0.12 0.12 0.10 0.10 0.09 0.08 0.06
0.10 0.18 0.21 0.23 0.23 0.27 0.27 0.24 0.27 0.30 0.30 0.25 0.11 0.12 0.10 0.05 0.02 0.03 0.03 0.03 0.02 0.01 0.00 0.00 0.00 0.01 0.03 0.03 0.02 0.03 0.05 0.13 0.20 0.21 0.21 0.20 0.22 0.24 0.20 0.18 0.20 0.19 0.15
0.10 0.18 0.16 0.23 0.21 0.20 0.27 0.29 0.34 0.32 0.34 0.36 0.26 0.15 0.07 0.05 0.06 0.07 0.11 0.11 0.06 0.02 0.01 0.01 0.00 0.00 0.01 0.01 0.01 0.03 0.04 0.08 0.15 0.19 0.22 0.27 0.36 0.48 0.38 0.35 0.40 0.37 0.30
0.05 0.10 0.15 0.17 0.21 0.31 0.41 0.43 0.52 0.46 0.33 0.36 0.32 0.23 0.11 0.12 0.17 0.13 0.17 0.16 0.10 0.04 0.02 0.01 0.01 0.00 0.00 0.00 0.00 0.02 0.03 0.05 0.08 0.15 0.22 0.33 0.49 0.63 0.54 0.54 0.54 0.47 0.37
0.05 0.12 0.18 0.24 0.38 0.47 0.51 0.55 0.55 0.54 0.42 0.41 0.40 0.35 0.24 0.22 0.15 0.06 0.08 0.10 0.11 0.10 0.07 0.05 0.03 0.01 0.00 0.00 0.00 0.01 0.02 0.02 0.02 0.05 0.16 0.32 0.48 0.58 0.68 0.73 0.64 0.51 0.37
0.11 0.16 0.20 0.28 0.34 0.40 0.46 0.43 0.50 0.60 0.55 0.46 0.48 0.45 0.36 0.30 0.22 0.10 0.07 0.06 0.11 0.13 0.14 0.12 0.06 0.02 0.01 0.00 0.00 0.01 0.01 0.00 0.03 0.08 0.15 0.27 0.37 0.49 0.66 0.73 0.67 0.51 0.33
0.19 0.23 0.25 0.28 0.28 0.31 0.41 0.46 0.52 0.55 0.55 0.50 0.46 0.48 0.44 0.35 0.34 0.28 0.18 0.14 0.13 0.07 0.09 0.08 0.04 0.02 0.01 0.00 0.00 0.01 0.00 0.01 0.08 0.14 0.13 0.20 0.26 0.32 0.45 0.55 0.55 0.41 0.25
0.18 0.25 0.30 0.33 0.33 0.37 0.45 0.48 0.49 0.45 0.47 0.47 0.45 0.46 0.44 0.40 0.42 0.41 0.30 0.21 0.12 0.03 0.03 0.02 0.02 0.01 0.01 0.01 0.01 0.01 0.01 0.01 0.07 0.14 0.14 0.19 0.19 0.19 0.25 0.31 0.33 0.27 0.17
0.14 0.18 0.23 0.31 0.34 0.39 0.40 0.39 0.44 0.45 0.47 0.46 0.43 0.42 0.41 0.34 0.31 0.33 0.34 0.26 0.19 0.08 0.06 0.04 0.04 0.03 0.03 0.02 0.03 0.04 0.03 0.01 0.03 0.08 0.08 0.09 0.09 0.08 0.11 0.16 0.16 0.14 0.09
0.11 0.14 0.20 0.30 0.34 0.37 0.39 0.39 0.37 0.38 0.41 0.42 0.43 0.45 0.36 0.30 0.28 0.33 0.39 0.37 0.28 0.21 0.23 0.12 0.09 0.06 0.04 0.03 0.04 0.04 0.04 0.02 0.03 0.04 0.02 0.03 0.03 0.03 0.04 0.06 0.07 0.06 0.03
0.12 0.13 0.18 0.24 0.34 0.43 0.48 0.46 0.43 0.42 0.45 0.47 0.52 0.49 0.34 0.26 0.24 0.30 0.40 0.42 0.35 0.23 0.19 0.22 0.19 0.11 0.08 0.05 0.03 0.03 0.04 0.04 0.04 0.03 0.02 0.01 0.02 0.01 0.02 0.03 0.03 0.02 0.00
0.11 0.15 0.20 0.24 0.26 0.30 0.33 0.33 0.38 0.41 0.43 0.41 0.38 0.33 0.28 0.25 0.28 0.30 0.37 0.39 0.37 0.27 0.15 0.29 0.31 0.15 0.15 0.05 0.03 0.02 0.02 0.03 0.04 0.03 0.02 0.02 0.02 0.02 0.03 0.02 0.01 0.00 0.00
0.08 0.11 0.14 0.13 0.12 0.10 0.10 0.11 0.14 0.17 0.18 0.15 0.12 0.12 0.14 0.17 0.20 0.21 0.26 0.29 0.32 0.32 0.22 0.33 0.50 0.35 0.26 0.13 0.06 0.07 0.03 0.01 0.01 0.01 0.01 0.01 0.02 0.02 0.02 0.01 0.00 0.00 0.00
0.04 0.06 0.06 0.04 0.02 0.02 0.02 0.03 0.03 0.03 0.03 0.03 0.03 0.04 0.06 0.11 0.14 0.14 0.19 0.25 0.30 0.34 0.30 0.27 0.41 0.48 0.39 0.23 0.15 0.12 0.07 0.03 0.05 0.04 0.01 0.00 0.01 0.01 0.01 0.01 0.00 0.00 0.00
0.00 0.00 0.00 0.00 0.01 0.00 0.00 0.00 0.00 0.00 0.01 0.01 0.01 0.02 0.03 0.04 0.07 0.11 0.15 0.20 0.24 0.37 0.34 0.27 0.32 0.49 0.44 0.31 0.27 0.18 0.16 0.18 0.10 0.10 0.04 0.01 0.00 0.00 0.00 0.00 0.00 0.00 0.00
0.00 0.00 0.00 0.00 0.00 0.00 0.00 0.01 0.01 0.02 0.02 0.03 0.03 0.02 0.01 0.02 0.04 0.07 0.12 0.15 0.19 0.21 0.25 0.28 0.32 0.45 0.46 0.35 0.39 0.32 0.24 0.21 0.16 0.12 0.14 0.06 0.02 0.01 0.00 0.00 0.00 0.00 0.00
0.00 0.00 0.00 0.00 0.00 0.00 0.00 0.00 0.02 0.03 0.03 0.06 0.06 0.02 0.00 0.00 0.01 0.02 0.05 0.11 0.13 0.16 0.21 0.28 0.34 0.43 0.55 0.46 0.37 0.37 0.31 0.22 0.21 0.30 0.38 0.22 0.07 0.03 0.02 0.01 0.01 0.01 0.01
0.00 0.00 0.00 0.00 0.00 0.00 0.00 0.00 0.01 0.02 0.01 0.02 0.03 0.01 0.00 0.00 0.01 0.01 0.01 0.02 0.02 0.06 0.14 0.22 0.29 0.36 0.47 0.53 0.44 0.38 0.31 0.26 0.23 0.27 0.44 0.54 0.38 0.23 0.16 0.07 0.04 0.04 0.03
0.03 0.03 0.02 0.00 0.00 0.00 0.00 0.00 0.00 0.00 0.00 0.00 0.00 0.00 0.00 0.00 0.00 0.01 0.01 0.02 0.03 0.01 0.04 0.12 0.14 0.14 0.20 0.24 0.29 0.37 0.39 0.32 0.29 0.32 0.33 0.51 0.79 0.67 0.38 0.22 0.16 0.10 0.05
0.09 0.09 0.05 0.02 0.00 0.00 0.00 0.00 0.00 0.00 0.00 0.00 0.00 0.00 0.00 0.00 0.00 0.00 0.01 0.05 0.04 0.01 0.01 0.02 0.01 0.01 0.03 0.04 0.06 0.09 0.19 0.29 0.27 0.31 0.33 0.39 0.67 1.12 0.90 0.51 0.36 0.24 0.16
0.07 0.10 0.06 0.03 0.01 0.00 0.00 0.00 0.00 0.00 0.00 0.00 0.00 0.00 0.00 0.00 0.00 0.00 0.00 0.01 0.01 0.01 0.00 0.00 0.00 0.00 0.00 0.01 0.01 0.03 0.05 0.08 0.18 0.36 0.42 0.41 0.45 0.77 1.29 1.07 0.62 0.31 0.16
0.01 0.03 0.03 0.05 0.04 0.01 0.00 0.00 0.00 0.00 0.00 0.00 0.00 0.00 0.00 0.00 0.00 0.00 0.00 0.00 0.00 0.00 0.00 0.00 0.00 0.00 0.00 0.00 0.01 0.01 0.01 0.02 0.06 0.22 0.41 0.43 0.43 0.51 0.89 1.27 1.10 0.67 0.34